Theta_e
326 325 327 329 334 335 338 338 340 339 340 339 338 340 339 339 340 342 346 346 346 346 347 347 349 350 346 345 344 345 345 345
327 326 326 330 331 335 337 341 341 338 339 340 339 339 338 338 338 340 342 345 346 347 347 348 349 351 351 345 344 345 345 345
327 327 326 327 331 334 335 336 339 339 338 337 336 337 336 336 335 336 338 343 346 347 347 349 350 351 353 350 345 345 346 346
327 326 326 328 329 333 337 339 337 337 338 336 337 336 335 335 334 334 336 340 343 346 348 348 351 351 353 354 354 345 345 346
329 325 326 326 328 330 333 335 341 338 338 336 335 336 335 336 336 336 343 343 343 346 348 349 351 352 352 353 354 354 355 354
332 329 326 325 326 328 330 336 334 336 337 336 335 335 335 335 334 335 339 345 345 346 348 350 351 352 352 353 353 354 355 356
330 330 329 328 326 325 326 328 331 332 334 335 336 335 334 333 332 334 343 346 347 347 349 352 353 353 355 355 355 354 355 356
333 331 330 329 329 328 327 326 327 329 331 333 333 332 333 332 332 334 340 346 347 348 349 352 354 355 356 355 355 355 356 357
335 333 333 333 331 330 330 328 327 328 329 330 331 333 333 334 334 335 335 343 346 348 348 352 354 356 356 356 355 355 354 357
335 334 335 333 332 332 331 330 329 328 328 329 330 331 331 334 335 337 337 338 345 347 348 352 352 354 353 354 353 349 354 349
337 337 334 332 331 332 332 332 331 329 329 329 330 332 335 336 337 338 339 340 343 346 348 351 350 351 348 353 352 355 350 348
339 337 337 340 338 336 337 336 331 330 330 331 330 334 337 336 338 336 337 341 345 345 346 349 349 350 349 353 351 343 338 340
337 338 337 338 335 336 337 336 339 331 330 330 333 334 340 339 339 340 342 344 345 346 347 349 350 352 352 349 346 350 352 343
337 339 340 334 336 338 341 340 338 338 338 337 338 340 341 343 343 344 346 346 349 350 350 349 351 351 352 353 343 336 333 335
339 339 335 332 335 334 336 338 342 340 339 340 340 342 343 343 345 345 346 346 347 348 348 348 344 338 335 333 334 334 333 336
338 334 334 331 329 330 331 333 335 340 341 341 340 340 340 341 341 342 342 342 343 343 341 338 334 333 335 335 335 336 341 345
336 333 329 329 330 328 327 329 331 334 338 340 342 343 344 344 344 344 343 345 345 345 333 334 336 337 337 336 338 340 344 343
336 331 331 330 327 327 328 328 328 328 330 331 332 334 338 343 344 344 339 336 334 336 338 340 341 340 338 341 342 343 342 342
334 331 327 325 321 321 322 322 323 323 323 324 326 328 330 335 340 343 344 343 341 335 338 341 340 340 341 338 334 334 342 341
Wind_Speed
25 19 26 28 27 25 23 20 17 18 15 22 14 17 19 19 18 20 26 34 39 38 39 38 37 39 40 39 36 36 37 36
24 22 27 28 23 24 21 25 23 21 21 13 17 19 19 17 16 21 24 28 34 39 41 40 38 37 38 39 38 36 37 39
20 26 25 21 20 25 23 22 18 18 18 16 14 13 12 12 15 17 17 25 30 36 39 41 38 36 36 37 38 37 37 39
25 26 27 25 25 27 18 25 20 21 17 18 20 18 24 25 20 14 14 17 24 30 34 38 40 38 35 35 36 39 38 39
19 19 24 29 27 28 26 21 27 20 19 16 11 12 14 17 17 14 11 13 18 26 32 36 37 39 38 35 35 34 31 34
18 24 21 21 27 29 28 20 22 25 22 23 22 18 19 15 17 20 15 14 17 24 30 32 33 38 42 35 32 29 30 30
25 23 24 25 25 26 29 29 27 24 29 22 23 18 22 24 22 21 14 17 21 25 29 30 32 34 31 30 29 28 28 28
21 24 24 21 25 27 28 28 29 31 30 22 27 34 28 28 26 25 21 21 21 24 27 30 30 29 26 26 26 26 27 28
19 21 23 25 27 27 29 28 28 28 25 24 28 24 30 30 31 28 27 23 20 26 31 28 27 25 26 25 24 25 26 25
15 17 21 20 24 26 28 28 30 28 25 23 28 30 33 36 31 27 26 26 20 21 23 25 25 24 23 22 24 24 25 24
14 16 13 15 13 14 24 28 25 26 23 25 28 22 20 25 24 28 25 24 21 21 23 25 25 25 25 24 24 22 21 21
10 19 18 6 8 9 10 14 24 25 25 24 22 15 16 16 19 20 15 18 18 20 24 24 26 26 26 25 24 22 19 16
17 13 9 6 7 2 6 5 23 28 33 27 21 18 7 7 11 9 10 12 17 20 21 23 25 25 25 23 20 17 16 15
12 13 16 6 4 5 6 15 15 13 15 20 18 12 12 11 15 17 18 20 22 24 22 23 24 24 23 21 20 18 13 10
6 4 6 5 2 2 4 6 11 1 7 13 16 16 19 22 24 23 21 23 23 24 25 23 23 24 22 17 12 13 12 14
10 5 8 13 14 13 17 8 5 11 16 18 21 21 18 22 25 28 26 25 23 24 24 22 19 16 15 15 13 10 12 14
13 12 15 13 16 15 16 14 14 21 21 18 18 17 15 18 19 19 23 22 21 19 21 19 16 14 13 13 15 13 15 14
8 14 16 11 12 8 12 11 13 20 22 21 21 21 19 20 18 15 19 19 18 16 14 16 17 17 17 16 14 15 13 11
7 14 24 17 14 8 7 8 14 20 19 19 19 17 17 17 17 15 14 16 14 16 14 15 16 17 14 17 16 13 13 13
Wind_Direction
212 211 218 202 218 226 241 224 234 224 216 248 242 260 261 253 232 224 212 213 214 212 210 208 210 212 218 221 225 227 225 226
199 211 220 228 206 220 229 232 227 240 232 222 224 231 238 237 230 227 221 217 216 215 212 209 209 212 216 224 227 227 226 229
206 208 204 209 230 215 231 227 239 227 235 220 240 242 242 245 226 233 232 222 218 215 213 212 209 210 212 218 224 225 227 230
211 215 222 210 215 215 224 222 234 249 242 225 224 232 247 248 255 276 255 233 223 215 210 208 210 209 211 213 215 222 224 228
232 207 220 226 212 223 217 233 227 229 234 241 197 228 259 248 253 262 254 244 220 207 205 204 207 207 209 212 215 217 214 218
215 217 193 213 232 229 226 225 236 241 232 227 225 234 239 240 261 269 263 240 207 200 200 201 204 207 209 212 214 213 214 213
230 244 223 221 210 225 234 240 239 239 241 227 239 232 249 257 258 267 257 227 205 198 200 199 201 205 207 209 210 208 211 212
233 234 241 241 229 230 225 233 240 244 247 242 226 241 243 247 251 252 251 232 212 202 201 201 200 201 200 200 202 201 206 210
238 225 238 239 240 233 234 231 235 237 238 235 243 238 236 241 242 244 246 237 219 212 205 200 196 195 194 193 191 198 204 205
238 230 237 244 242 237 243 236 232 235 241 229 236 231 233 230 237 240 243 243 228 215 208 201 190 188 184 185 191 197 197 202
235 230 237 228 217 258 243 238 240 235 232 234 223 228 250 240 233 235 238 237 226 210 199 189 183 180 181 178 181 185 193 197
202 244 236 52 21 352 327 256 236 234 218 225 229 233 244 225 221 230 232 220 203 189 184 184 176 175 171 170 173 177 181 186
229 229 211 31 342 139 211 289 321 241 235 226 230 237 261 194 191 170 180 174 170 167 171 167 162 162 157 158 162 165 170 178
228 216 226 5 209 236 353 328 311 274 245 236 218 184 159 147 130 125 130 130 136 137 145 146 147 147 145 147 155 162 174 181
241 190 86 74 91 45 36 358 353 113 161 164 163 156 146 138 123 119 121 122 124 125 126 129 137 145 145 143 148 150 178 204
167 126 94 102 86 74 76 76 74 79 101 116 119 119 121 111 112 114 109 104 109 115 121 128 137 143 142 147 166 187 189 174
102 127 110 81 76 79 85 80 84 89 91 93 93 91 93 91 91 96 100 102 103 106 116 121 128 134 140 153 160 158 156 159
163 149 118 94 70 57 72 80 71 75 72 68 72 73 71 70 73 76 98 106 114 118 128 137 141 153 153 141 138 133 128 141
116 123 106 104 91 60 67 86 89 83 78 74 68 65 66 64 64 66 76 94 108 115 139 143 146 141 139 148 151 136 140 146